www.pogodaiklimat.ru

Погода и климат >> Архив погоды >> Гренада >> Аэропорт Морис Бишоп


ПОГОДА в Аэропорту Морис Бишоп

  • Прогноз погоды в Аэропорту Морис Бишоп
  • Монитор погоды в Аэропорту Морис Бишоп

АРХИВ ПОГОДЫ в Аэропорту Морис Бишоп

Время (UTC), дата Ветер
(напр.,м/с)
 
Видим.   Явления Облачность Т
(С)
Тd
(С)
f
(%)
Тe
(С)
Тes
(С)
Комфортность P
(гПа)
Po
(гПа)
Тmin
(С)
Tmax
(С)
R
(мм)
R24
(мм)
S
(см)
09 15.08 В 18 4000 м слаб. ливневой дождь 9/6 420 м
[Cb cap Ac cuf Ci ing]
+26.3 +24.9 92 +38 +38 очень
душно
1014.5 1013.5
12 15.08 В 15 12 км осадки на расстоянии {гроза, ливн. осадки} 9/9 420 м
[Cb cap Ac lent Ci ing]
+28.0 +24.7 82 +40 +40 очень
душно
1015.7 1014.7 +25.2 +31.4 2
21 15.08 В 15 12 км пыль 8/3 540 м
[Cu Sc Ac trans Ci sp]
+29.8 +25.1 76 +43 +43 опасность
перегрева
1013.6 1012.6
00 16.08 В 10 12 км пыль 9/3 540 м
[Cu med, cong Ci sp]
+28.2 +24.9 82 +40 +40 очень
душно
1015.1 1014.1 +25.2 +31.4
03 16.08 В 11 12 км пыль 8/3 540 м
[Cu Sc Ci sp]
+28.1 +24.8 82 +40 +40 очень
душно
1015.9 1014.9
06 16.08 В 12 14 км пыль 6/1 570 м
[Cu Sc Ac trans Ci sp]
+28.0 +24.6 82 +40 +40 очень
душно
1014.3 1013.3 +25.2 +31.4
09 16.08 В 9 14 км пыль 8/1 540 м
[Cu Sc Ci sp]
+27.4 +24.7 85 +39 +39 очень
душно
1014.2 1013.2
12 16.08 В 7 14 км слаб. ливневой дождь 8/5 540 м
[Cu Sc Ci sp]
+27.3 +23.5 80 +37 +38 очень
душно
1015.8 1014.8 +27.0 +31.4
15 16.08 В 13 16 км осадки на расстоянии 8/4 540 м
[Cu Sc Ci sp]
+30.6 +25.1 73 +44 +44 опасность
перегрева
1016.1 1015.1
18 16.08 ЮВ 15 16 км пыль 3/3 540 м
[Cu med, cong Ci fib]
+31.4 +24.8 68 +45 +45 опасность
перегрева
1014.1 1013.1 +26.0 +31.6
21 16.08 В 10 14 км пыль 8/4 570 м
[Cu Sc Cs]
+29.6 +25.0 76 +42 +43 опасность
перегрева
1013.8 1012.8
00 17.08 В 6 12 км пыль 6/1 570 м
[Cu med, cong Ci sp]
+27.7 +24.4 82 +39 +39 очень
душно
1014.1 1013.1 +27.0 +31.8
03 17.08 В 5 12 км пыль 6/1 570 м
[Cu med, cong Ci sp]
+27.2 +24.3 84 +38 +38 очень
душно
1015.3 1014.3
06 17.08 В 7 12 км пыль 9/4 480 м
[Cu Sc Ci sp]
+27.1 +24.8 87 +39 +39 очень
душно
1014.1 1013.1 +26.7 +31.8
09 17.08 В 5 12 км пыль 9/3 540 м
[Cu Sc Cs]
+27.0 +25.0 89 +39 +39 очень
душно
1014.2 1013.2
12 17.08 В 10 10 км осадки на расстоянии {ливн. осадки} 9/8 420 м
[Cb cap Ac cuf Ci ing]
+28.4 +24.3 78 +40 +40 очень
душно
1015.1 1014.1 +25.9 +31.8 3
18 17.08 ЮВ 10 18 км пыль {ливн. осадки} 9/5 480 м
[Cu Sc Ac As Ci ing]
+28.2 +24.9 82 +40 +41 очень
душно
1014.2 1013.2 +25.0 +29.4 0.2
21 17.08 В 10 18 км пыль 9/5 480 м
[Cu Sc Ac As Ci sp]
+28.5 +25.1 82 +41 +41 опасность
перегрева
1013.5 1012.5
00 18.08 В 12 18 км пыль 8/5 540 м
[Cu Sc Ci sp]
+27.1 +24.6 86 +38 +38 очень
душно
1014.4 1013.4 +25.0 +29.4
03 18.08 В 11 18 км зарница 9/8 450 м
[Cu Sc Ac trans Ci sp]
+27.3 +24.8 86 +39 +39 очень
душно
1015.8 1014.8
06 18.08 В 8 18 км пыль 9/5 540 м
[Cu Sc Ac trans Ci sp]
+27.0 +24.8 88 +39 +39 очень
душно
1014.6 1013.6 +25.0 +29.4
09 18.08 В 4 18 км пыль 8/3 540 м
[Cu Sc Ac trans Ci sp]
+26.5 +24.0 86 +37 +37 очень
душно
1014.5 1013.5
12 18.08 В 14 20 км пыль 3/3 540 м
[Cu Sc Ci fib]
+29.1 +25.3 80 +42 +42 опасность
перегрева
1015.1 1014.1 +26.1 +29.4
15 18.08 В 11 20 км пыль 3/3 540 м
[Cu Sc Ci fib]
+30.0 +25.7 78 +45 +45 опасность
перегрева
1015.5 1014.5
18 18.08 В 13 19 км пыль {ливн. осадки} 3/3 540 м
[Cu Sc Ac trans]
+30.3 +25.2 74 +44 +44 опасность
перегрева
1014.0 1013.0 +26.1 +30.3 0.4
21 18.08 В 10 15 км осадки на расстоянии 3/3 500 м
[Cu med, cong Ci fib]
+30.2 +24.8 73 +43 +43 опасность
перегрева
1013.3 1012.3
00 19.08 В 5 18 км осадки на расстоянии 8/6 540 м
[Cu Sc Ci fib]
+27.4 +25.0 87 +39 +39 очень
душно
1014.4 1013.4 +26.1 +30.8
03 19.08 СВ 5 12 км осадки на расстоянии {ливн. осадки} 5/5 480 м
[Sc diur, vesp Ac trans Ci fib]
+25.8 +23.6 88 +35 +35 очень
душно
1016.1 1015.1
06 19.08 В 6 16 км осадки на расстоянии {ливн. осадки} 9/9 480 м
[Sc diur, vesp Ac lent Ci fib]
+26.4 +23.5 84 +36 +36 очень
душно
1013.4 1012.4 +24.2 +30.8 0.6
09 19.08 В 5 16 км пыль 9/8 540 м
[Cu Sc Ac trans Ci fib]
+26.1 +22.3 80 +34 +34 очень
душно
1014.1 1013.1
12 19.08 В 10 26 км 8/4 480 м
[Cu med, cong Ci fib]
+28.3 +24.8 81 +40 +40 очень
душно
1015.5 1014.5 +24.2 +30.8
18 19.08 ЮВ 11 30 км 4/3 600 м
[Cu hum Ci fib]
+29.7 +25.2 77 +43 +43 опасность
перегрева
1014.2 1013.2 +24.8 +29.9
21 19.08 В 10 30 км 1/1 600 м
[Cu Sc Ci fib]
+30.2 +24.5 72 +43 +43 опасность
перегрева
1013.2 1012.2
00 20.08 В 5 27 км 1/1 600 м
[Cu Sc Ci fib]
+27.4 +24.2 83 +38 +38 очень
душно
1014.8 1013.8 +24.8 +30.5
03 20.08 В 5 25 км 1/1 570 м
[Cu Sc Ci fib]
+27.0 +24.5 86 +38 +38 очень
душно
1016.2 1015.2
06 20.08 В 4 23 км пыль 1/1 540 м
[Cu med, cong]
+26.5 +24.2 87 +37 +37 очень
душно
1014.4 1013.4 +24.8 +30.5
09 20.08 нст 2 14 км осадки на расстоянии 3/3 500 м
[Cu med, cong Ci fib]
+26.0 +24.2 90 +36 +36 очень
душно
1014.2 1013.2
12 20.08 В 10 18 км пыль 3/3 540 м
[Cu hum]
+29.2 +25.3 80 +43 +43 опасность
перегрева
1015.6 1014.5 +25.9 +30.5
15 20.08 ЮВ 14 18 км пыль 1/1 570 м
[Cu hum]
+30.1 +24.4 72 +42 +42 опасность
перегрева
1016.3 1015.3
18 20.08 В 10 25 км 1/1 570 м
[Cu med, cong]
+30.4 +24.4 70 +42 +43 опасность
перегрева
1014.5 1013.5 +25.9 +30.8
21 20.08 штиль 0 25 км 3/3 570 м
[Cu med, cong]
+31.1 +24.7 69 +44 +46 опасность
перегрева
1013.6 1012.6
00 21.08 штиль 0 25 км 1/1 540 м
[Cu hum]
+27.3 +24.3 84 +38 +38 очень
душно
1014.7 1013.7 +25.9 +32.2
03 21.08 В 5 25 км 1/1 540 м
[Cu hum]
+26.9 +24.2 85 +37 +37 очень
душно
1015.3 1014.3
06 21.08 штиль 0 25 км 1/1 540 м
[Cu med, cong]
+26.3 +24.1 88 +37 +37 очень
душно
1013.9 1012.9 +25.9 +32.2
09 21.08 В 3 25 км 1/1 540 м
[Cu Sc Ci fib]
+26.3 +24.1 88 +37 +37 очень
душно
1014.0 1013.0
12 21.08 В 9 20 км пыль 4/4 570 м
[Cu Sc Ac lent Ci fib]
+29.0 +24.9 79 +42 +42 опасность
перегрева
1015.2 1014.2 +25.7 +32.2
21 21.08 ЮВ 10 18 км пыль 6/5 540 м
[Cu Sc Ci fib]
+29.4 +24.5 75 +42 +42 опасность
перегрева
1013.3 1012.3
00 22.08 пыль н/о +24.5 1014.0 1013.0 +25.7 +30.9
03 22.08 В 8 18 км пыль 3/3 540 м
[Cu hum]
+28.0 +24.6 82 +40 +40 очень
душно
1014.9 1013.9
06 22.08 В 10 18 км пыль 1/1 540 м
[Cu med, cong]
+28.0 +24.9 83 +40 +40 очень
душно
1013.8 1012.8 +25.7 +30.9

 

Местоположение метеостанции Аэропорт Морис Бишоп (Гренада): широта 12.00 долгота -61.78 высота над уровнем моря 7 м.

В архиве по умолчанию представлена погода в Аэропорту Морис Бишоп за последнюю неделю. Архивные данные за месяц целиком и за предыдущие месяцы, начиная с января 2011 года, Вы можете получить, выбрав интересующий диапазон дат из раскрывающегося списка и нажав кнопку "Ввод!".


*Определитесь, кто Вы:
робот инопланетянин человек

Внимание! Время в таблицах - всемирное. Для получения местного времени необходимо прибавить поправку, которая равна -4 ч.

Смотрите также архив погоды в соседних городах и на ближайших метеорологических станциях:

Погода в Краун-Пойнте (Тринидад и Тобаго) (140 км)
Погода в Арнос Вейл (Сент-Винсент и Гренадины) (141 км)
Погода в Аэропорту Пиарко (Тринидад и Тобаго) (161 км)
Погода в Гуирии (Венесуэла) (168 км)
Погода в Аэропорту Хеванорра (Сент-Люсия) (212 км)
Погода в Виги (Сент-Люсия) (239 км)
Погода в Порламаре (Венесуэла) (266 км)
Погода в Грантли Адамсе (Барбадос) (277 км)
Погода в Мэтьюрине (Венесуэла) (293 км)
Погода в Аэропорту Мартиники (Мартиника) (301 км)

Пояснения к столбцам:

Ветер - указаны скорость ветра в м/с - средняя за 10 мин, порывы в срок и между сроками (в фигурных скобках) и направление, откуда дует ветер: С - северный, СВ - северо-восточный, В - восточный, ЮВ - юго-восточный, Ю - южный, ЮЗ - юго-западный, З - западный, СЗ - северо-западный.
Видимость - горизонтальная дальность видимости в метрах или километрах. При видимости от 1 до 10 км при отсутствии осадков обычно наблюдается дымка, при ухудшении видимости до 1 км и менее - туман. В сухую погоду видимость может ухудшаться дымом, пылью или мглою.
Явления - указаны атмосферные явления, наблюдавшиеся в срок или в последний час перед сроком; фигурными скобками обозначены явления, наблюдавшиеся между сроками (за 1-3 часа до срока); квадратными скобками обозначены град или гололедные отложения с указанием их диаметра в мм.
Облачность - указаны через наклонную черту общая и нижняя облачность в баллах и высота нижней границы облаков в метрах; квадратными скобками обозначены формы облаков: Ci - перистые, Cs - перисто-слоистые, Cc - перисто-кучевые, Ac - высококучевые, As - высокослоистые, Sc - слоисто-кучевые, Ns - слоисто-дождевые, Cu - кучевые, Cb - кучево-дождевые. Подробнее классификацию облаков см. в Атласе облаков (PDF).
T - Температура воздуха - температура, измеренная на высоте 2 м над землей.
Td - Температура точки росы - температура, при понижении до которой содержащийся в воздухе водяной пар достигнет насыщения.
f - Относительная влажность воздуха - влажноcть воздуха, измеренная на высоте 2 м над землей.
Te - Эффективная температура - температура, которую ощущает одетый по сезону человек в тени. Характеристика душности погоды. При расчете учитывается влияние влажности воздуха и скорости ветра на теплоощущения человека.
Tes - Эффективная температура на солнце - температура, которую ощущает человек, с поправкой на солнечный нагрев. Характеристика знойности погоды. Зависит от высоты солнца над горизонтом, облачности и скорости ветра. Ночью, в пасмурную погоду, а также при ветре 12 м/с и более поправка равна нулю.
P - Атмосферное давление - приведенное к уровню моря атмосферное давление.
Po - Атмосферное давление - измеренное на уровне метеостанции атмосферное давление.
Tmin - Минимальная температура - минимум температуры воздуха на высоте 2 м над землей.
Tmax - Максимальная температура - максимум температуры воздуха на высоте 2 м над землей.
R - Количество осадков - Количество выпавших осадков за период времени, мм. При наведении курсора мыши на число - период времени, за который выпало указанное количество осадков.
R24 - Количество осадков - Количество выпавших осадков за 24 часа, мм.
S - Снежный покров - Высота снежного покрова, см. При наведении курсора мыши на число - состояние снежного покрова и степень покрытия местности в баллах.